DELTA 1 DEB, 7085

Orbit data source: Space-Track

DELTA 1 DEB, 7085 is space debris in SSO originally from a launch on Tue, 06 Nov 1973 UTC launched from the Air Force Western Test Range (AFWTR). Debris objects in space refer to the collection of defunct objects orbiting the Earth. Examples of debris include non-operational satellites, rocket bodies, and fragments generated from explosions, collisions, or faulty payload assembly.

Loading next visibility...
Identifier
7085, 1973-086CD
Orbit
SSO
Country
Flag of USUS
Related business
Manufacturer
Unknown
Mission
Spacecraft
Bus & Motor
Unknown
Mass
Unknown
Launch date (UTC)
1973-11-06 (52 years ago)
Launch vehicle
Unknown
Launch site
Air Force Western Test Range (AFWTR)
Object type
Payload
Rocket body
Debris
Shape & HBR
Unknown shape, 0.1 m
Radar Cross Section
Small (<0.1 m²)

Expand to show TLE details & history
Last TLE update: 8 hours ago

TLE from 8 hours ago
0 DELTA 1 DEB
1 07085U 73086CD  25295.90813587  .00000136  00000-0  10421-2 0  9998
2 07085 102.1417  81.4906 0097854 306.6101 207.4292 12.60222061386247
Epoch: 2025-10-22T21:47Z
TLE epoch observation values (Epoch: 2025-10-22T21:47:42.939Z)
Latitude
25.86745°
Longitude
-91.05487°
Altitude
1,492.779 km
Speed
7.089 km/s
True Right ascension
17h 49m 47s
True Declination
25° 44' 43"
Sunlit
Object was in daylight at epoch
Visualization orbit readout
Latitude
Unknown
Longitude
Unknown
Altitude
Unknown
Speed
Unknown
Apparent Right ascension
Unknown
Apparent Declination
Unknown
Sunlit
N/A
Visualization observer readout
Local Sidereal Time
01:19:51
Azimuth
Unknown
Elevation
Unknown
Doppler factor
Unknown
Orbital elements
Apogee altitude
1,495.888 km
Perigee altitude
1,343.281 km
Semi-major axis
7,797.722 km
Eccentricity
0.00979
Inclination
102.1417°
RAAN
81.4906°
Arg. of periapsis
306.6101°
True anomaly
206.91822°
Mean anomaly
207.4292°
Eccentric anomaly
207.17316°
Mean motion
3.15204 °/min
Orbital period
114.21 mins
BSTAR
0.0010421
Loading maneuver chart data...
Computing Atmospheric mass density...
Loading historical data...
Loading historical data...
Loading historical data...
Loading historical data...
Loading historical data...
Loading historical data...
Loading historical data...

Documentation

Showing up to 5 results
|